Sitka, Alaska, United States (99835)
Lat: 57.05N, Lon: 135.33W
Wx Zone: AKZ023
Local Info
Past Weather Observations for Thursday, December 18, 2014

NOTE: This archive is for the closest National Weather Service station to Sitka. Information may differ from the station used for current weather conditions.

Click here for Long-term Archive

Time Weather Temperature Dewpoint Humidity Pressure Winds Precip Visibility
23:53
Overcast
43°F / 6°C 32°F / 0°C 66% 29.27 in
(991 mb)
E 13.8 mph
(E 22 kph)
0.00 in
(0.00 mm)
10SM
22:53
Overcast
Light Rain
43°F / 6°C 32°F / 0°C 66% 29.27 in
(991 mb)
SE 13.8 mph
(SE 22 kph)
0.00 in
(0.00 mm)
10SM
21:53
Overcast
Light Rain
45°F / 7°C 34°F / 1°C 66% 29.24 in
(990 mb)
ESE 11.5 mph
(ESE 19 kph)
0.00 in
(0.00 mm)
10SM
20:53
Overcast
45°F / 7°C 32°F / 0°C 61% 29.24 in
(990 mb)
E 6.9 mph
(E 11 kph)
- 10SM
19:53
Overcast
45°F / 7°C 30°F / -1°C 57% 29.24 in
(990 mb)
SE 16.1 mph
(SE 26 kph)
- 10SM
18:53
Overcast
45°F / 7°C 30°F / -1°C 57% 29.24 in
(990 mb)
SE 17.3 mph
(SE 28 kph)
- 10SM
17:53
Overcast
45°F / 7°C 30°F / -1°C 57% 29.24 in
(990 mb)
SE 18.4 mph
(SE 30 kph)
- 10SM
16:53
Overcast
45°F / 7°C 30°F / -1°C 57% 29.21 in
(989 mb)
SE 17.3 mph
(SE 28 kph)
- 10SM
15:53
Overcast
45°F / 7°C 32°F / 0°C 61% 29.21 in
(989 mb)
SE 17.3 mph
(SE 28 kph)
- 10SM
14:53
Overcast
45°F / 7°C 34°F / 1°C 66% 29.21 in
(989 mb)
SE 20.7 mph
(SE 33 kph)
- 10SM
13:53
Overcast
45°F / 7°C 30°F / -1°C 57% 29.18 in
(988 mb)
ESE 18.4 mph
(ESE 30 kph)
- 10SM
12:53
Overcast
45°F / 7°C 30°F / -1°C 57% 29.21 in
(989 mb)
SE 18.4 mph
(SE 30 kph)
- 10SM
11:53
Overcast
45°F / 7°C 30°F / -1°C 57% 29.24 in
(990 mb)
ESE 12.7 mph
(ESE 20 kph)
- 10SM
10:53
Overcast
45°F / 7°C 32°F / 0°C 61% 29.27 in
(991 mb)
SE 17.3 mph
(SE 28 kph)
- 10SM
09:53
Overcast
45°F / 7°C 32°F / 0°C 61% 29.3 in
(992 mb)
ESE 9.2 mph
(ESE 15 kph)
- 10SM
08:53
Overcast
43°F / 6°C 30°F / -1°C 61% 29.33 in
(993 mb)
SE 18.4 mph
(SE 30 kph)
- 10SM
07:53
Overcast
43°F / 6°C 30°F / -1°C 61% 29.36 in
(994 mb)
ESE 16.1 mph
(ESE 26 kph)
- 10SM
06:53
Overcast
43°F / 6°C 28°F / -2°C 57% 29.39 in
(995 mb)
E 15 mph
(E 24 kph)
- 10SM
05:53
Clear
43°F / 6°C 28°F / -2°C 57% 29.42 in
(996 mb)
E 19.6 mph
(E 32 kph)
- 10SM
04:53
Partly Cloudy
43°F / 6°C 28°F / -2°C 57% 29.44 in
(997 mb)
ESE 12.7 mph
(ESE 20 kph)
- 10SM
03:53
Clear
43°F / 6°C 28°F / -2°C 57% 29.47 in
(998 mb)
ESE 13.8 mph
(ESE 22 kph)
- 10SM
02:53
Overcast
43°F / 6°C 28°F / -2°C 57% 29.47 in
(998 mb)
ESE 12.7 mph
(ESE 20 kph)
- 10SM
01:53
Partly Cloudy
41°F / 5°C 28°F / -2°C 61% 29.5 in
(999 mb)
ESE 6.9 mph
(ESE 11 kph)
- 10SM
00:53
Mostly Cloudy
43°F / 6°C 27°F / -3°C 53% 29.53 in
(1000 mb)
E 13.8 mph
(E 22 kph)
- 10SM
Time Weather Temperature Dewpoint Humidity Pressure Winds Precip Visibility


Weather for websites

WeatherForYou.com, LLC is not responsible for any damages or problems caused by this service. Current weather conditions are obtained from the closest station including government and personal stations which may have varying degrees of accuracy. Weather forecasts are derived from the NOAA NDFD. Like all things, this site belongs to Jesus Christ... He just trusts me to maintain it. If you have any questions or comments email webmaster@weatherforyou.com

Copyright © 2014, WeatherForYou.com LLC. All rights reserved.